When you browse on this site, cookies collect data to enhance your experience and personalize the content and advertising you see.
Visit our Privacy Policy to learn more. By continuing to use the site, you agree to this use of cookies and data.
  • în România
  • Lista ţărilor
  • Pe 7 zile
  • Temperatura apei
  • Meteo pe hartă
  • Widget-uri
  • user-avatar
    Intrare

    Meteo pe oră la Knighton

    Astăzi, 22 Februarie, Sâmbătă

    Timp Temperatura Precipitaţii Vânt Presiune Umiditate
    00:00 +6°C° 0 mm 11 m/s 730 mmHg 84%
    01:00 +7°C° 1 mm 12 m/s 729 mmHg 86%
    02:00 +7°C° 1 mm 12 m/s 728 mmHg 87%
    03:00 +7°C° 1 mm 13 m/s 727 mmHg 89%
    04:00 +7°C° 0.2 mm 13 m/s 727 mmHg 88%
    05:00 +7°C° 0.2 mm 13 m/s 728 mmHg 86%
    06:00 +7°C° 0.2 mm 13 m/s 728 mmHg 84%
    07:00 +5°C° 0 mm 13 m/s 729 mmHg 82%
    08:00 +4°C° 0 mm 13 m/s 729 mmHg 81%
    09:00 +3°C° 0 mm 12 m/s 730 mmHg 79%
    10:00 +4°C° 0.1 mm 12 m/s 731 mmHg 76%
    11:00 +4°C° 0.1 mm 12 m/s 731 mmHg 74%
    12:00 +4°C° 0.1 mm 12 m/s 732 mmHg 72%
    13:00 +4°C° 0 mm 12 m/s 732 mmHg 72%
    14:00 +3°C° 0 mm 12 m/s 733 mmHg 72%
    15:00 +3°C° 0 mm 11 m/s 733 mmHg 72%
    16:00 +3°C° 0 mm 10 m/s 733 mmHg 74%
    17:00 +2°C° 0 mm 9 m/s 733 mmHg 76%
    18:00 +2°C° 0 mm 8 m/s 734 mmHg 78%
    19:00 +2°C° 0 mm 8 m/s 734 mmHg 80%
    20:00 +2°C° 0 mm 8 m/s 734 mmHg 82%
    21:00 +3°C° 0 mm 7 m/s 734 mmHg 83%
    22:00 +3°C° 0.5 mm 7 m/s 734 mmHg 86%
    23:00 +2°C° 0.5 mm 8 m/s 734 mmHg 88%

    Mâine, 23 Februarie, Duminică

    Timp Temperatura Precipitaţii Vânt Presiune Umiditate
    00:00 +2°C° 0.5 mm 8 m/s 733 mmHg 90%
    01:00 +3°C° 1.6 mm 6 m/s 732 mmHg 92%
    02:00 +3°C° 1.6 mm 5 m/s 730 mmHg 94%
    03:00 +4°C° 1.6 mm 4 m/s 729 mmHg 97%
    04:00 +5°C° 2 mm 7 m/s 728 mmHg 94%
    05:00 +7°C° 2 mm 11 m/s 727 mmHg 92%
    06:00 +8°C° 2 mm 14 m/s 726 mmHg 89%
    07:00 +8°C° 0.6 mm 13 m/s 727 mmHg 89%
    08:00 +7°C° 0.6 mm 12 m/s 727 mmHg 88%
    09:00 +7°C° 0.6 mm 11 m/s 728 mmHg 88%
    10:00 +6°C° 0.1 mm 10 m/s 729 mmHg 85%
    11:00 +5°C° 0.1 mm 10 m/s 731 mmHg 83%
    12:00 +3°C° 0.1 mm 9 m/s 732 mmHg 81%
    13:00 +4°C° 0 mm 8 m/s 733 mmHg 77%
    14:00 +3°C° 0 mm 7 m/s 734 mmHg 73%
    15:00 +3°C° 0 mm 6 m/s 734 mmHg 69%
    16:00 +2°C° 0 mm 5 m/s 735 mmHg 74%
    17:00 +2°C° 0 mm 3 m/s 736 mmHg 78%
    18:00 +2°C° 0 mm 2 m/s 736 mmHg 83%
    19:00 +2°C° 0 mm 2 m/s 736 mmHg 83%
    20:00 +3°C° 0 mm 1 m/s 736 mmHg 83%
    21:00 +3°C° 0 mm 1 m/s 736 mmHg 83%
    22:00 +2°C° 0 mm 2 m/s 736 mmHg 82%
    23:00 +2°C° 0 mm 3 m/s 735 mmHg 81%

    Poimâine, 24 Februarie, Luni

    Timp Temperatura Precipitaţii Vânt Presiune Umiditate
    00:00 +2°C° 0 mm 3 m/s 735 mmHg 79%
    01:00 +1°C° 0.3 mm 4 m/s 733 mmHg 84%
    02:00 +3°C° 0.3 mm 4 m/s 732 mmHg 90%
    03:00 +2°C° 0.3 mm 5 m/s 730 mmHg 95%
    04:00 +3°C° 0 mm 7 m/s 729 mmHg 93%
    05:00 +3°C° 0 mm 9 m/s 728 mmHg 91%
    06:00 +5°C° 0 mm 10 m/s 726 mmHg 90%
    07:00 +6°C° 1 mm 11 m/s 726 mmHg 90%
    08:00 +6°C° 1 mm 11 m/s 725 mmHg 90%
    09:00 +7°C° 1 mm 11 m/s 724 mmHg 91%
    10:00 +6°C° 0.5 mm 11 m/s 724 mmHg 88%
    11:00 +5°C° 0.5 mm 12 m/s 724 mmHg 86%
    12:00 +5°C° 0.5 mm 12 m/s 724 mmHg 84%
    13:00 +4°C° 0 mm 12 m/s 723 mmHg 81%
    14:00 +3°C° 0 mm 12 m/s 723 mmHg 79%
    15:00 +2°C° 0 mm 12 m/s 723 mmHg 77%
    16:00 +2°C° 0 mm 11 m/s 724 mmHg 76%
    17:00 +1°C° 0 mm 11 m/s 724 mmHg 76%
    18:00 +1°C° 0 mm 10 m/s 724 mmHg 75%
    19:00 0°C° 0 mm 10 m/s 724 mmHg 75%
    20:00 0°C° 0 mm 9 m/s 724 mmHg 75%
    21:00 0°C° 0 mm 9 m/s 725 mmHg 75%
    22:00 -1°C° 0 mm 9 m/s 724 mmHg 76%
    23:00 -1°C° 0 mm 9 m/s 724 mmHg 76%

    25 Februarie, Marţi

    Timp Temperatura Precipitaţii Vânt Presiune Umiditate
    00:00 -1°C° 0 mm 9 m/s 724 mmHg 76%
    01:00 -1°C° 0 mm 9 m/s 724 mmHg 76%
    02:00 -1°C° 0 mm 8 m/s 723 mmHg 76%
    03:00 -2°C° 0 mm 8 m/s 723 mmHg 77%
    04:00 -2°C° 0 mm 8 m/s 723 mmHg 78%
    05:00 -2°C° 0 mm 7 m/s 723 mmHg 79%
    06:00 -2°C° 0 mm 7 m/s 723 mmHg 80%
    07:00 -1°C° 0 mm 7 m/s 723 mmHg 78%
    08:00 -1°C° 0 mm 8 m/s 723 mmHg 76%
    09:00 -1°C° 0 mm 8 m/s 723 mmHg 74%
    10:00 0°C° 0 mm 8 m/s 722 mmHg 71%
    11:00 +1°C° 0 mm 8 m/s 722 mmHg 69%
    12:00 +2°C° 0 mm 8 m/s 722 mmHg 67%
    13:00 +1°C° 0.1 mm 8 m/s 721 mmHg 67%
    14:00 +2°C° 0.1 mm 7 m/s 721 mmHg 67%
    15:00 +2°C° 0.1 mm 7 m/s 720 mmHg 67%
    16:00 0°C° 0.5 mm 7 m/s 719 mmHg 76%
    17:00 -1°C° 0.5 mm 7 m/s 719 mmHg 84%
    18:00 -2°C° 0.5 mm 7 m/s 719 mmHg 92%
    19:00 -3°C° 0.1 mm 7 m/s 719 mmHg 88%
    20:00 -3°C° 0.1 mm 7 m/s 719 mmHg 84%
    21:00 -3°C° 0.1 mm 7 m/s 719 mmHg 80%
    22:00 -4°C° 0 mm 7 m/s 719 mmHg 80%
    23:00 -4°C° 0 mm 7 m/s 720 mmHg 81%

    26 Februarie, Miercuri

    Timp Temperatura Precipitaţii Vânt Presiune Umiditate
    00:00 -4°C° 0 mm 7 m/s 720 mmHg 81%
    01:00 -4°C° 0.1 mm 7 m/s 720 mmHg 82%
    02:00 -4°C° 0.1 mm 7 m/s 721 mmHg 83%
    03:00 -5°C° 0.1 mm 8 m/s 721 mmHg 85%
    04:00 -4°C° 0 mm 7 m/s 722 mmHg 85%
    05:00 -4°C° 0 mm 7 m/s 722 mmHg 85%
    06:00 -4°C° 0 mm 7 m/s 723 mmHg 85%
    07:00 -4°C° 0 mm 8 m/s 724 mmHg 81%
    08:00 -2°C° 0 mm 8 m/s 725 mmHg 77%
    09:00 -1°C° 0 mm 8 m/s 726 mmHg 73%
    10:00 -1°C° 0 mm 9 m/s 726 mmHg 71%
    11:00 0°C° 0 mm 9 m/s 727 mmHg 69%
    12:00 0°C° 0 mm 9 m/s 728 mmHg 66%
    13:00 0°C° 0 mm 9 m/s 728 mmHg 66%
    14:00 0°C° 0 mm 9 m/s 728 mmHg 65%
    15:00 0°C° 0 mm 8 m/s 729 mmHg 64%
    16:00 -1°C° 0 mm 7 m/s 729 mmHg 69%
    17:00 -2°C° 0 mm 6 m/s 729 mmHg 74%
    18:00 -2°C° 0 mm 4 m/s 729 mmHg 79%
    19:00 -2°C° 0 mm 4 m/s 729 mmHg 80%
    20:00 -1°C° 0 mm 3 m/s 729 mmHg 82%
    21:00 -1°C° 0 mm 3 m/s 729 mmHg 83%
    22:00 -1°C° 0 mm 3 m/s 728 mmHg 84%
    23:00 -1°C° 0 mm 3 m/s 728 mmHg 85%

    27 Februarie, Joi

    Timp Temperatura Precipitaţii Vânt Presiune Umiditate
    00:00 0°C° 0 mm 3 m/s 727 mmHg 86%
    01:00 -2°C° 1.1 mm 5 m/s 725 mmHg 90%
    02:00 -3°C° 1.1 mm 6 m/s 723 mmHg 94%
    03:00 -5°C° 1.1 mm 8 m/s 721 mmHg 98%
    04:00 -3°C° 2.2 mm 6 m/s 720 mmHg 98%
    05:00 -2°C° 2.2 mm 5 m/s 718 mmHg 99%
    06:00 0°C° 2.2 mm 3 m/s 717 mmHg 99%
    07:00 0°C° 1.2 mm 5 m/s 717 mmHg 99%
    08:00 +2°C° 1.2 mm 6 m/s 716 mmHg 99%
    09:00 +4°C° 1.2 mm 8 m/s 716 mmHg 99%
    10:00 +5°C° 0 mm 9 m/s 716 mmHg 96%
    11:00 +6°C° 0 mm 9 m/s 717 mmHg 94%
    12:00 +7°C° 0 mm 10 m/s 717 mmHg 91%
    13:00 +6°C° 0 mm 10 m/s 717 mmHg 89%
    14:00 +6°C° 0 mm 10 m/s 718 mmHg 88%
    15:00 +6°C° 0 mm 10 m/s 718 mmHg 87%
    16:00 +5°C° 0 mm 9 m/s 719 mmHg 87%
    17:00 +4°C° 0 mm 8 m/s 719 mmHg 88%
    18:00 +2°C° 0 mm 8 m/s 720 mmHg 88%
    19:00 +3°C° 0 mm 7 m/s 720 mmHg 88%
    20:00 +2°C° 0 mm 7 m/s 721 mmHg 87%
    21:00 +2°C° 0 mm 6 m/s 722 mmHg 87%
    22:00 +1°C° 0 mm 6 m/s 722 mmHg 87%
    23:00 +1°C° 0 mm 5 m/s 722 mmHg 88%
    Arată mai mult